| time (UTC) | temp F | wind direction | speed knots | gust knots | rain 1hr in | rain 24hr in | rain mn in | humidity % | barometer mb |
| 20260504033402 | 64 | 194 | 3.5 | 3.5 | 0.00 | 0.00 | 0.00 | 51 | 1011.5 |
| 20260504030401 | 65 | 199 | 2.6 | 2.6 | 0.00 | 0.00 | 0.00 | 49 | 1011.3 |
| 20260504023400 | 66 | 200 | 1.7 | 4.3 | 0.00 | 0.00 | 0.00 | 47 | 1011.1 |
| 20260504020359 | 69 | 206 | 2.6 | 6.1 | 0.00 | 0.00 | 0.00 | 42 | 1010.4 |
| 20260504013358 | 72 | 221 | 3.5 | 6.1 | 0.00 | 0.00 | 0.00 | 37 | 1009.7 |
| 20260504010358 | 74 | 203 | 3.5 | 9.6 | 0.00 | 0.00 | 0.00 | 34 | 1009.3 |
| 20260504003356 | 74 | 223 | 3.5 | 13.9 | 0.00 | 0.00 | 0.00 | 33 | 1009.5 |
| 20260504000356 | 75 | 233 | 6.1 | 15.6 | 0.00 | 0.00 | 0.00 | 32 | 1009.6 |
| 20260503233354 | 74 | 238 | 3.5 | 12.2 | 0.00 | 0.00 | 0.00 | 32 | 1010.0 |
| 20260503230354 | 75 | 236 | 5.2 | 13.0 | 0.00 | 0.00 | 0.00 | 30 | 1009.9 |
| 20260503223352 | 75 | 238 | 4.3 | 11.3 | 0.00 | 0.00 | 0.00 | 30 | 1010.2 |
| 20260503220351 | 75 | 258 | 3.5 | 9.6 | 0.00 | 0.00 | 0.00 | 31 | 1010.7 |
| 20260503213350 | 75 | 219 | 4.3 | 13.0 | 0.00 | 0.00 | 0.00 | 31 | 1011.3 |
| 20260503210349 | 74 | 235 | 6.1 | 17.4 | 0.00 | 0.00 | 0.00 | 32 | 1012.3 |
| 20260503203348 | 74 | 218 | 5.2 | 13.0 | 0.00 | 0.00 | 0.00 | 32 | 1012.6 |
| 20260503200347 | 75 | 213 | 3.5 | 5.2 | 0.00 | 0.00 | 0.00 | 32 | 1013.1 |
| 20260503193347 | 74 | 233 | 4.3 | 4.3 | 0.00 | 0.00 | 0.00 | 33 | 1014.0 |
| 20260503190345 | 74 | 198 | 5.2 | 5.2 | 0.00 | 0.00 | 0.00 | 34 | 1014.4 |
| 20260503183344 | 72 | 213 | 5.2 | 5.2 | 0.00 | 0.00 | 0.00 | 35 | 1015.5 |
| 20260503180343 | 71 | 218 | 3.5 | 5.2 | 0.00 | 0.00 | 0.00 | 37 | 1016.3 |
| 20260503173342 | 70 | 203 | 3.5 | 3.5 | 0.00 | 0.00 | 0.00 | 39 | 1017.0 |
| 20260503170341 | 69 | 216 | 5.2 | 5.2 | 0.00 | 0.00 | 0.00 | 40 | 1017.5 |
| 20260503150337 | 63 | 234 | 4.3 | 4.3 | 0.00 | 0.00 | 0.00 | 53 | 1019.8 |
| 20260503130333 | 50 | 234 | 2.6 | 2.6 | 0.00 | 0.00 | 0.00 | 83 | 1022.1 |
| 20260503110329 | 48 | 242 | 1.7 | 1.7 | 0.00 | 0.00 | 0.00 | 86 | 1021.6 |
| 20260503090325 | 50 | 251 | 1.7 | 1.7 | 0.00 | 0.00 | 0.00 | 83 | 1021.6 |
| 20260503080323 | 51 | 252 | 2.6 | 2.6 | 0.00 | 0.00 | 0.00 | 80 | 1021.5 |